Location: Hac?musa Deresi
(39.1694°N, 32.2508°E)
Time: 10:09:08
(UTC+00:00)

Helios 1A Rocket - Pass Details

Date: 22 April 2026
Orbit: 406 x 416 km, 98.3° (Epoch: 12 May)

Event Time Altitude Azimuth Distance (km) Brightness Sun altitude
Rises 18:00:24 0° 7° (N) 2,370 6.4 -15.9°
Maximum altitude 18:05:32 47° 286° (WNW) 559 3.3 -16.7°
Drops below altitude 10° 18:08:34 10° 211° (SSW) 1,478 5.0 -17.2°
Sets 18:10:35 0° 206° (SSW) 2,332 6.0 -17.6°
